Time,TemperatureF,DewpointF,PressureIn,WindDirection,WindDirectionDegrees,WindSpeedMPH,WindSpeedGustMPH,Humidity,HourlyPrecipIn,Conditions,Clouds,dailyrainin,SoftwareType,DateUTC
2013-09-08 00:00:00,70.1,64.3,30.03,SE,135,1.0,5.0,82,0.00,,,-99.99,WeatherLink 5.7,2013-09-08 05:00:00,
2013-09-08 00:30:00,69.2,64.5,30.05,ESE,112,1.0,3.0,85,0.00,,,-99.99,WeatherLink 5.7,2013-09-08 05:30:00,
2013-09-08 01:00:00,68.3,64.3,30.06,ESE,112,1.0,3.0,87,0.00,,,-99.99,WeatherLink 5.7,2013-09-08 06:00:00,
2013-09-08 01:30:00,67.5,63.8,30.06,SE,135,1.0,4.0,88,0.00,,,-99.99,WeatherLink 5.7,2013-09-08 06:30:00,
2013-09-08 02:00:00,66.8,63.1,30.06,SSE,157,1.0,4.0,88,0.00,,,-99.99,WeatherLink 5.7,2013-09-08 07:00:00,
2013-09-08 02:30:00,66.2,62.2,30.05,SSE,157,1.0,6.0,87,0.00,,,-99.99,WeatherLink 5.7,2013-09-08 07:30:00,
2013-09-08 03:00:00,65.7,61.4,30.06,SE,135,1.0,3.0,86,0.00,,,-99.99,WeatherLink 5.7,2013-09-08 08:00:00,
2013-09-08 03:30:00,65.1,59.8,30.06,South,180,1.0,3.0,83,0.00,,,-99.99,WeatherLink 5.7,2013-09-08 08:30:00,
2013-09-08 04:00:00,64.6,57.6,30.06,ESE,112,1.0,5.0,78,0.00,,,-99.99,WeatherLink 5.7,2013-09-08 09:00:00,
2013-09-08 04:30:00,64.2,56.5,30.05,SE,135,1.0,4.0,76,0.00,,,-99.99,WeatherLink 5.7,2013-09-08 09:30:00,
2013-09-08 05:00:00,64.0,55.9,30.05,SSE,157,1.0,9.0,75,0.00,,,-99.99,WeatherLink 5.7,2013-09-08 10:00:00,
2013-09-08 05:30:00,63.7,56.4,30.05,SE,135,1.0,3.0,77,0.00,,,-99.99,WeatherLink 5.7,2013-09-08 10:30:00,
2013-09-08 06:00:00,63.4,56.1,30.05,ESE,112,1.0,3.0,77,0.00,,,-99.99,WeatherLink 5.7,2013-09-08 11:00:00,
2013-09-08 06:30:00,63.3,56.7,30.05,ESE,112,1.0,4.0,79,0.00,,,-99.99,WeatherLink 5.7,2013-09-08 11:30:00,
2013-09-08 07:00:00,63.1,57.2,30.05,ESE,112,1.0,3.0,81,0.00,,,-99.99,WeatherLink 5.7,2013-09-08 12:00:00,
2013-09-08 07:30:00,62.9,57.7,30.06,SE,135,1.0,4.0,83,0.00,,,-99.99,WeatherLink 5.7,2013-09-08 12:30:00,
2013-09-08 08:00:00,63.0,57.8,30.07,SE,135,1.0,3.0,83,0.00,,,-99.99,WeatherLink 5.7,2013-09-08 13:00:00,
2013-09-08 08:30:00,63.8,58.9,30.07,ESE,112,1.0,4.0,84,0.00,,,-99.99,WeatherLink 5.7,2013-09-08 13:30:00,
2013-09-08 09:00:00,64.6,59.3,30.07,SE,135,1.0,7.0,83,0.00,,,-99.99,WeatherLink 5.7,2013-09-08 14:00:00,
2013-09-08 09:30:00,64.7,59.4,30.07,ESE,112,0.0,3.0,83,0.00,,,-99.99,WeatherLink 5.7,2013-09-08 14:30:00,
2013-09-08 10:00:00,65.0,60.0,30.06,ESE,112,0.0,3.0,84,0.00,,,-99.99,WeatherLink 5.7,2013-09-08 15:00:00,
2013-09-08 10:30:00,65.5,60.5,30.06,East,90,0.0,3.0,84,0.00,,,-99.99,WeatherLink 5.7,2013-09-08 15:30:00,
2013-09-08 11:00:00,66.5,60.8,30.06,ESE,112,1.0,3.0,82,0.00,,,-99.99,WeatherLink 5.7,2013-09-08 16:00:00,
2013-09-08 11:30:00,67.5,60.8,30.07,SE,135,0.0,3.0,79,0.00,,,-99.99,WeatherLink 5.7,2013-09-08 16:30:00,
2013-09-08 12:00:00,68.2,62.8,30.05,ESE,112,0.0,4.0,83,0.00,,,-99.99,WeatherLink 5.7,2013-09-08 17:00:00,
2013-09-08 12:30:00,68.1,61.3,30.04,ESE,112,0.0,3.0,79,0.00,,,-99.99,WeatherLink 5.7,2013-09-08 17:30:00,
2013-09-08 13:00:00,68.7,60.8,30.04,ESE,112,0.0,3.0,76,0.00,,,-99.99,WeatherLink 5.7,2013-09-08 18:00:00,
2013-09-08 13:30:00,69.5,62.3,30.02,SE,135,0.0,3.0,78,0.00,,,-99.99,WeatherLink 5.7,2013-09-08 18:30:00,
2013-09-08 14:00:00,69.6,63.2,30.02,SE,135,0.0,3.0,80,0.00,,,-99.99,WeatherLink 5.7,2013-09-08 19:00:00,
2013-09-08 14:30:00,69.8,63.0,29.97,ESE,112,0.0,3.0,79,0.00,,,-99.99,WeatherLink 5.7,2013-09-08 19:30:00,
2013-09-08 15:00:00,70.6,63.0,29.97,ESE,112,0.0,4.0,77,0.00,,,-99.99,WeatherLink 5.7,2013-09-08 20:00:00,
2013-09-08 15:30:00,71.3,64.4,29.97,East,90,0.0,2.0,79,0.00,,,-99.99,WeatherLink 5.7,2013-09-08 20:30:00,
2013-09-08 16:00:00,72.1,64.9,29.95,East,90,0.0,3.0,78,0.00,,,-99.99,WeatherLink 5.7,2013-09-08 21:00:00,
2013-09-08 16:30:00,72.6,65.3,29.95,East,90,0.0,3.0,78,0.00,,,-99.99,WeatherLink 5.7,2013-09-08 21:30:00,
2013-09-08 17:00:00,72.4,64.4,29.95,ESE,112,1.0,3.0,76,0.00,,,-99.99,WeatherLink 5.7,2013-09-08 22:00:00,
2013-09-08 17:30:00,72.4,65.2,29.95,ESE,112,0.0,3.0,78,0.00,,,-99.99,WeatherLink 5.7,2013-09-08 22:30:00,
2013-09-08 18:00:00,72.3,65.1,29.94,ESE,112,0.0,3.0,78,0.00,,,-99.99,WeatherLink 5.7,2013-09-08 23:00:00,
2013-09-08 18:30:00,72.4,64.8,29.93,ESE,112,1.0,3.0,77,0.00,,,-99.99,WeatherLink 5.7,2013-09-08 23:30:00,
2013-09-08 19:00:00,72.3,64.7,29.93,ESE,112,0.0,3.0,77,0.00,,,-99.99,WeatherLink 5.7,2013-09-09 00:00:00,
2013-09-08 19:30:00,71.7,64.8,29.93,ESE,112,0.0,2.0,79,0.00,,,-99.99,WeatherLink 5.7,2013-09-09 00:30:00,
2013-09-08 20:00:00,70.8,64.3,29.93,North,-999,0.0,2.0,80,0.00,,,-99.99,WeatherLink 5.7,2013-09-09 01:00:00,
2013-09-08 20:30:00,70.4,64.6,29.94,North,-999,0.0,0.0,82,0.00,,,-99.99,WeatherLink 5.7,2013-09-09 01:30:00,
2013-09-08 21:00:00,70.4,64.6,29.93,ESE,112,0.0,1.0,82,0.00,,,-99.99,WeatherLink 5.7,2013-09-09 02:00:00,
2013-09-08 21:30:00,70.2,65.1,29.92,North,-999,0.0,0.0,84,0.00,,,-99.99,WeatherLink 5.7,2013-09-09 02:30:00,
2013-09-08 22:00:00,70.1,66.4,29.92,ESE,112,0.0,3.0,88,0.00,,,-99.99,WeatherLink 5.7,2013-09-09 03:00:00,
2013-09-08 22:30:00,70.5,66.8,29.91,ESE,112,0.0,3.0,88,0.00,,,-99.99,WeatherLink 5.7,2013-09-09 03:30:00,
2013-09-08 23:00:00,70.5,66.8,29.91,ESE,112,0.0,3.0,88,0.00,,,-99.99,WeatherLink 5.7,2013-09-09 04:00:00,
2013-09-08 23:30:00,70.2,66.8,29.91,ESE,112,0.0,2.0,89,0.00,,,-99.99,WeatherLink 5.7,2013-09-09 04:30:00,